Weather History for Clinton, OK

Change the Weather History Date:

Monday, April 14, 2014

  Actual Average (KCSM) Record (KCSM)
Temperature  
Mean Temperature 41 °F -  
Max Temperature 50 °F 69 °F 90 °F (2006)
Min Temperature 32 °F 45 °F 33 °F (2008)
Degree Days  
Heating Degree Days 24    
Moisture  
Dew Point 20 °F    
Average Humidity 51    
Maximum Humidity 93    
Minimum Humidity 16    
Precipitation  
Precipitation 0.00 in - - ()
Sea Level Pressure  
Sea Level Pressure 30.16 in    
Wind  
Wind Speed 21 mph (North)    
Max Wind Speed 32 mph    
Max Gust Speed 40 mph    
Visibility 9 miles    
Events Snow    
Averages and records for this station are not official NWS values.
T = Trace of Precipitation, MM = Missing Value Source: NWS Daily Summary

Daily Weather History Graph

Daily Weather History Graph

Search for Another Location

Airport:

Trip Planner

Search our weather history database for the weather conditions in past years. The results will help you decide how hot, cold, wet, or windy it might be!

Date:

Astronomy

Apr. 14, 2014 Rise Set
Actual Time 7:04 AM CDT 8:08 PM CDT
Civil Twilight 6:38 AM CDT 8:34 PM CDT
Nautical Twilight 6:07 AM CDT 9:05 PM CDT
Astronomical Twilight 5:34 AM CDT 9:37 PM CDT
Moon 7:48 PM CDT (4/14) 6:35 AM CDT (4/14)
Length of Visible Light 13h 56m
Length of Day
13h 03m
Full, 100% of the Moon is Illuminated
Apr 14
Full
Apr 15
Full
Apr 22
Last Quarter
Apr 29
New
May 6
First Quarter

Hourly Weather History & Observations

Time (CDT) Temp. Windchill Dew Point Humidity Pressure Visibility Wind Dir Wind Speed Gust Speed Precip Events Conditions
12:15 AM 39.2 °F 31.2 °F 28.4 °F 65% 29.98 in 10.0 mi North 13.8 mph - N/A   Overcast
12:35 AM 39.2 °F 29.0 °F 28.4 °F 65% 29.98 in 10.0 mi North 21.9 mph 27.6 mph N/A   Overcast
12:55 AM 37.4 °F 26.4 °F 30.2 °F 75% 29.98 in 10.0 mi North 23.0 mph 29.9 mph N/A   Overcast
1:15 AM 37.4 °F 27.2 °F 30.2 °F 75% 29.97 in 10.0 mi North 19.6 mph 27.6 mph N/A   Overcast
1:35 AM 37.4 °F 25.9 °F 30.2 °F 75% 29.98 in 10.0 mi North 25.3 mph 32.2 mph N/A   Overcast
1:55 AM 37.4 °F 26.6 °F 28.4 °F 70% 30.00 in 10.0 mi North 21.9 mph 28.8 mph N/A   Overcast
2:15 AM 37.4 °F 26.6 °F 28.4 °F 70% 29.98 in 10.0 mi North 21.9 mph 26.5 mph N/A   Overcast
2:35 AM 37.4 °F 26.6 °F 28.4 °F 70% 29.99 in 10.0 mi North 21.9 mph 27.6 mph N/A   Overcast
2:55 AM 37.4 °F 25.9 °F 28.4 °F 70% 30.00 in 10.0 mi North 25.3 mph 33.4 mph N/A   Overcast
3:15 AM 37.4 °F 25.4 °F 26.6 °F 65% 29.99 in 10.0 mi North 27.6 mph 33.4 mph N/A   Overcast
3:35 AM 37.4 °F 25.6 °F 26.6 °F 65% 29.99 in 10.0 mi North 26.5 mph 33.4 mph N/A   Overcast
3:55 AM 37.4 °F 26.4 °F 26.6 °F 65% 30.00 in 10.0 mi North 23.0 mph 39.1 mph N/A   Overcast
4:15 AM 37.4 °F 26.6 °F 26.6 °F 65% 30.02 in 10.0 mi North 21.9 mph 31.1 mph N/A   Overcast
4:35 AM 37.4 °F 26.9 °F 26.6 °F 65% 30.03 in 10.0 mi NNW 20.7 mph 33.4 mph N/A   Overcast
4:55 AM 35.6 °F 23.4 °F 28.4 °F 75% 30.04 in 10.0 mi North 25.3 mph 35.7 mph N/A   Overcast
5:15 AM 35.6 °F 24.0 °F 26.6 °F 70% 30.05 in 10.0 mi North 23.0 mph 34.5 mph N/A   Overcast
5:35 AM 35.6 °F 22.1 °F 26.6 °F 70% 30.03 in 10.0 mi North 32.2 mph 36.8 mph N/A   Overcast
5:55 AM 35.6 °F 23.0 °F 28.4 °F 75% 30.05 in 10.0 mi North 27.6 mph 35.7 mph N/A   Overcast
6:15 AM 35.6 °F 24.2 °F 28.4 °F 75% 30.06 in 10.0 mi North 21.9 mph 40.3 mph N/A   Overcast
6:35 AM 33.8 °F 21.0 °F 28.4 °F 81% 30.07 in 10.0 mi North 25.3 mph 29.9 mph N/A Snow Light Snow
6:55 AM 33.8 °F 21.3 °F 28.4 °F 81% 30.09 in 5.0 mi North 24.2 mph 35.7 mph N/A Snow Light Snow
7:15 AM 33.8 °F 21.3 °F 30.2 °F 87% 30.09 in 7.0 mi North 24.2 mph 29.9 mph N/A Snow Light Snow
7:35 AM 33.8 °F 21.9 °F 30.2 °F 87% 30.11 in 5.0 mi North 21.9 mph 26.5 mph N/A Snow Light Snow
7:55 AM 33.8 °F 21.9 °F 28.4 °F 81% 30.14 in 5.0 mi North 21.9 mph 34.5 mph N/A Snow Light Snow
8:15 AM 32.0 °F 20.1 °F 30.2 °F 93% 30.14 in 4.0 mi North 19.6 mph 28.8 mph N/A Snow Light Snow
8:35 AM 32.0 °F 19.2 °F 30.2 °F 93% 30.16 in 3.0 mi North 23.0 mph 31.1 mph N/A Snow Light Snow
8:55 AM 32.0 °F 19.2 °F 28.4 °F 87% 30.18 in 7.0 mi North 23.0 mph 34.5 mph N/A Snow Light Snow
9:15 AM 32.0 °F 18.1 °F 30.2 °F 93% 30.19 in 2.5 mi North 27.6 mph 34.5 mph N/A Snow Light Snow
9:35 AM 32.0 °F 18.4 °F 26.6 °F 80% 30.20 in 10.0 mi North 26.5 mph 39.1 mph N/A   Overcast
9:55 AM 33.8 °F 21.6 °F 26.6 °F 75% 30.22 in 10.0 mi North 23.0 mph 33.4 mph N/A   Overcast
10:15 AM 33.8 °F 21.6 °F 26.6 °F 75% 30.22 in 10.0 mi North 23.0 mph 34.5 mph N/A Snow Light Snow
10:35 AM 35.6 °F 23.4 °F 26.6 °F 70% 30.23 in 10.0 mi North 25.3 mph 36.8 mph N/A   Overcast
10:55 AM 37.4 °F 26.1 °F 24.8 °F 60% 30.24 in 10.0 mi North 24.2 mph 33.4 mph N/A   Overcast
11:15 AM 37.4 °F 26.6 °F 24.8 °F 60% 30.25 in 10.0 mi North 21.9 mph 31.1 mph N/A   Overcast
11:35 AM 39.2 °F 29.3 °F 23.0 °F 52% 30.25 in 10.0 mi North 20.7 mph 29.9 mph N/A   Overcast
11:55 AM 42.8 °F 33.3 °F 21.2 °F 42% 30.25 in 10.0 mi North 24.2 mph 33.4 mph N/A   Overcast
12:15 PM 42.8 °F 33.3 °F 21.2 °F 42% 30.24 in 10.0 mi North 24.2 mph 28.8 mph N/A   Scattered Clouds
12:35 PM 44.6 °F 35.7 °F 19.4 °F 37% 30.24 in 10.0 mi North 24.2 mph 32.2 mph N/A   Scattered Clouds
12:55 PM 44.6 °F 35.9 °F 17.6 °F 34% 30.24 in 10.0 mi North 23.0 mph 31.1 mph N/A   Scattered Clouds
1:15 PM 46.4 °F 38.3 °F 15.8 °F 29% 30.22 in 10.0 mi North 23.0 mph 32.2 mph N/A   Clear
1:35 PM 46.4 °F 37.9 °F 17.6 °F 32% 30.23 in 10.0 mi North 25.3 mph 33.4 mph N/A   Clear
1:55 PM 46.4 °F 38.5 °F 19.4 °F 34% 30.22 in 10.0 mi North 21.9 mph 32.2 mph N/A   Scattered Clouds
2:15 PM 46.4 °F 37.7 °F 19.4 °F 34% 30.22 in 10.0 mi North 26.5 mph 35.7 mph N/A   Scattered Clouds
2:35 PM 48.2 °F - 17.6 °F 30% 30.22 in 10.0 mi North 24.2 mph 31.1 mph N/A   Scattered Clouds
2:55 PM 50.0 °F - 17.6 °F 28% 30.23 in 10.0 mi NNW 23.0 mph 33.4 mph N/A   Scattered Clouds
3:15 PM 48.2 °F - 15.8 °F 27% 30.22 in 10.0 mi North 26.5 mph 33.4 mph N/A   Scattered Clouds
3:35 PM 50.0 °F - 14.0 °F 24% 30.22 in 10.0 mi North 26.5 mph 31.1 mph N/A   Scattered Clouds
3:55 PM 50.0 °F - 12.2 °F 22% 30.22 in 10.0 mi North 25.3 mph 34.5 mph N/A   Clear
4:15 PM 50.0 °F - 12.2 °F 22% 30.22 in 10.0 mi North 24.2 mph 33.4 mph N/A   Clear
4:35 PM 50.0 °F - 5.0 °F 16% 30.22 in 10.0 mi NNW 25.3 mph 34.5 mph N/A   Clear
4:55 PM 50.0 °F - 8.6 °F 19% 30.21 in 10.0 mi North 18.4 mph 32.2 mph N/A   Clear
5:15 PM 50.0 °F - 10.4 °F 20% 30.22 in 10.0 mi NNW 18.4 mph 31.1 mph N/A   Clear
5:35 PM 50.0 °F - 10.4 °F 20% 30.21 in 10.0 mi North 21.9 mph 29.9 mph N/A   Clear
5:55 PM 50.0 °F - 10.4 °F 20% 30.21 in 10.0 mi North 18.4 mph 27.6 mph N/A   Clear
6:15 PM 50.0 °F - 8.6 °F 19% 30.21 in 10.0 mi North 24.2 mph 29.9 mph N/A   Clear
6:35 PM 50.0 °F - 8.6 °F 19% 30.22 in 10.0 mi North 19.6 mph 28.8 mph N/A   Clear
6:55 PM 48.2 °F - 5.0 °F 17% 30.22 in 10.0 mi NNW 24.2 mph 29.9 mph N/A   Clear
7:15 PM 46.4 °F 38.5 °F 5.0 °F 18% 30.23 in 10.0 mi NNW 21.9 mph - N/A   Clear
7:35 PM 46.4 °F 38.7 °F 5.0 °F 18% 30.22 in 10.0 mi North 20.7 mph 26.5 mph N/A   Clear
7:55 PM 44.6 °F 37.2 °F 5.0 °F 20% 30.23 in 10.0 mi North 17.3 mph 21.9 mph N/A   Clear
8:15 PM 44.6 °F 38.4 °F 6.8 °F 21% 30.24 in 10.0 mi NNW 12.7 mph 19.6 mph N/A   Clear
8:55 PM 41.0 °F 35.8 °F 6.8 °F 24% 30.25 in 10.0 mi North 8.1 mph - N/A   Clear
9:15 PM 39.2 °F 35.9 °F 6.8 °F 26% 30.25 in 10.0 mi North 4.6 mph - N/A   Clear
9:35 PM 39.2 °F 35.9 °F 6.8 °F 26% 30.26 in 10.0 mi NNW 4.6 mph - N/A   Clear
9:55 PM 37.4 °F 33.8 °F 6.8 °F 28% 30.27 in 10.0 mi NW 4.6 mph - N/A   Clear
10:15 PM 37.4 °F 34.9 °F 6.8 °F 28% 30.27 in 10.0 mi NW 3.5 mph - N/A   Clear
10:35 PM 37.4 °F - 8.6 °F 30% 30.28 in 10.0 mi Calm Calm - N/A   Clear
11:15 PM 35.6 °F 31.7 °F 8.6 °F 33% 30.29 in 10.0 mi NW 4.6 mph - N/A   Clear